Regional Weather Roundup
Issued by NWS Sioux Falls, SD

Home | Current Version | Previous Version | Graphics & Text | Print | Product List | Glossary Off
Versions: 1 2 3 4 5 6 7 8 9 10 11 12 13 14 15 16 17 18 19 20 21 22 23 24 25 26 27 28 29 30 31 32 33 34 35 36 37 38 39 40 41 42 43 44 45 46 47 48 49 50

000
ASUS43 KFSD 020102
RWRFSD

WEATHER ROUNDUP FOR SE SOUTH DAKOTA/SW MINNESOTA/NW IOWA
NATIONAL WEATHER SERVICE SIOUX FALLS SD
800 PM CDT FRI AUG 01 2014

NOTE: "FAIR" INDICATES FEW OR NO CLOUDS BELOW 12,000 FEET WITH NO
SIGNIFICANT WEATHER AND OR OBSTRUCTIONS TO VISIBILITY.


SDZ038>040-050-052>070-020200-
SOUTHEAST SOUTH DAKOTA

CITY           SKY/WX    TMP DP  RH WIND       PRES   REMARKS
CHAMBERLAIN    CLEAR     80  56  43 E9        30.02S
HURON          CLEAR     80  57  45 SE6       30.04S
MADISON        FAIR      75  61  60 S5        30.09S
MITCHELL       CLEAR     78  61  55 SE7       30.06S
SIOUX FALLS    PTCLDY    76  57  51 SE9       30.08S
WINNER         FAIR      85  56  37 SE15      30.01S
YANKTON        CLEAR     77  61  57 E3        30.07S
$$

MNZ071-072-080-081-089-090-097-098-020200-
SOUTHWEST MINNESOTA

CITY           SKY/WX    TMP DP  RH WIND       PRES   REMARKS
FAIRMONT       CLEAR     79  54  41 CALM      30.08R
JACKSON        CLEAR     73  64  73 CALM      30.10R
LUVERNE        CLEAR     77  64  65 CALM      30.09S
MARSHALL       CLEAR     79  57  47 CALM      30.06F
MONTEVIDEO     CLEAR     79  64  61 CALM      30.07S
PIPESTONE      CLEAR     79  55  44 CALM      30.10S
REDWOOD FALLS  CLEAR     79  62  56 NW3       30.06S
TRACY          CLEAR     78  61  55 CALM      30.08S
WINDOM         CLEAR     77  61  57 CALM      30.09R
WORTHINGTON    CLEAR     77  57  50 CALM      30.11S
$$

IAZ001>003-012>014-020>022-031-032-NEZ013-014-SDZ071-020200-
NORTHWEST IOWA

CITY           SKY/WX    TMP DP  RH WIND       PRES   REMARKS
CHEROKEE       PTCLDY    77  62  59 CALM      30.08S
DENISON        CLEAR     77  63  61 CALM      30.06S
ESTHERVILLE    CLEAR     75  62  64 CALM      30.08S
SIOUX CITY     PTCLDY    79  60  52 E5        30.07S
SPENCER        CLEAR     78  62  57 CALM      30.08S
STORM LAKE     CLEAR     75  66  73 CALM      30.09S
$$

ABBREVIATIONS USED IN REMARKS
   TC - TEMPERATURE IN CELSIUS
  WCI - WIND CHILL INDEX
   HX - HEAT INDEX
  VSB - VISIBILITY




USA.gov is the U.S. government's official web portal to all federal, state and local government web resources and services.